Regional Weather Roundup
Issued by NWS Kansas City/Pleasant Hill, MO

Home | Current Version | Previous Version | Text Only | Print | Product List | Glossary On
Versions: 1 2 3 4 5 6 7 8 9 10 11 12 13 14 15 16 17 18 19 20 21 22 23 24 25 26 27
000
ASUS43 KEAX 191110
RWREAX

WEATHER ROUNDUP FOR EASTERN KANSAS AND NORTHWEST MISSOURI
NATIONAL WEATHER SERVICE KANSAS CITY/PLEASANT HILL MO
600 AM CDT TUE SEP 19 2017

KSZ040-057-103>105-MOZ028-029-037-043-191200-
...KANSAS CITY METROPOLITAN AREA...

CITY           SKY/WX    TMP DP  RH WIND       PRES   REMARKS
K.C. INTL      TSTM      67  67 100 CALM      29.89F
K.C. DOWNTOWN  RAIN      69  69 100 NE7       29.89R FOG
LEES SUMMIT    CLOUDY    66  66 100 E5        29.90R
OLATHE - IXD   MOCLDY    67  65  93 SE5       29.88S
OLATHE - OJC   PTCLDY    66  66 100 NE5       29.89R
LAWRENCE       PTCLDY    67  67 100 E7        29.86S

$$

MOZ001>008-011>017-020>025-030>033-038>040-044>046-053-054-191200-
...NORTHERN AND CENTRAL MISSOURI...

CITY           SKY/WX    TMP DP  RH WIND       PRES   REMARKS
ST. JOSEPH     MOCLDY    67  67 100 SE7       29.87S FOG
MOSBY          FOG       66  66 100 CALM      29.90S VSB 3/4
WARRENSBURG    FOG       63  61  94 CALM      29.90S VSB 3/4
WHITEMAN AFB   PTCLDY    64 N/A N/A S3        29.90S FOG
CLINTON        LGT RAIN  66  66 100 E3        29.91S
SEDALIA        MOCLDY    63  63 100 SE5       29.93S
WARSAW         NOT AVBL
CHILLICOTHE      N/A     65  65 100 SE6       29.91F
KIRKSVILLE     FOG       64  63  96 CALM      29.94S VSB 1/4

$$

MOZ041-047>049-056>058-063>065-088>090-097-191200-
...EASTERN AND SOUTHERN MISSOURI...

CITY           SKY/WX    TMP DP  RH WIND       PRES   REMARKS
ST. LOUIS INTL FOG       66  66 100 CALM      29.94S VSB 1/2
SPIRIT OF STL  FOG       66  66 100 CALM      29.92S VSB 1/4
COLUMBIA       FOG       64  64 100 SE3       29.94S VSB 1/4
JEFFERSON CITY FOG       63  62  97 SE3       29.93S VSB 1/2
ROLLA          FOG       61  61 100 S3        29.96S VSB 1/2
OSAGE BEACH    FOG       63  63 100 CALM      29.94S VSB 1/4
SPRINGFIELD    FOG       67  67 100 S10       29.94R VSB 1/2
BRANSON        CLEAR     64  64 100 CALM      29.97R FOG
JOPLIN         PTCLDY    66  66 100 CALM      29.91R
WEST PLAINS    FOG       62  62 100 CALM      29.98R VSB 3/4

$$

IAZ060-094-KSZ022-034>040-054-083-096-NEZ052-066-093-191200-
...KANSAS...SOUTHEAST NEBRASKA AND IOWA...

CITY           SKY/WX    TMP DP  RH WIND       PRES   REMARKS
TOPEKA         CLEAR     66  65  96 CALM      29.84S
MANHATTAN      CLEAR     68  66  93 SW5       29.82S
EMPORIA        MOCLDY    67  64  90 S8        29.85F
CHANUTE        CLEAR     66  64  93 SE6       29.88S
WICHITA        PTCLDY    68  66  93 S12       29.84S
OMAHA          CLOUDY    68  64  87 SE13      29.82F
LINCOLN        CLEAR     67  64  90 S10       29.81S
FALLS CITY     CLEAR     66  65  96 SE6       29.83F FOG
LAMONI         FOG       64  64 100 SE6       29.90S VSB 1/4
DES MOINES     FOG       64  64 100 SE6       29.89S VSB 1/4

$$





USA.gov is the U.S. government's official web portal to all federal, state and local government web resources and services.